Regional Weather Roundup
Issued by NWS

Home | Current Version | Previous Version | Graphics & Text | Print | Product List | Glossary On
Versions: 1 2 3 4 5 6 7 8 9 10 11 12 13 14 15 16 17 18 19 20 21 22 23 24 25 26 27 28 29 30 31 32 33 34 35 36 37 38 39 40 41 42 43 44 45 46 47 48 49 50
000
ASUS43 KIND 190309
RWRIN

WEATHER ROUNDUP FOR INDIANA
NATIONAL WEATHER SERVICE INDIANAPOLIS IN
1100 PM EDT FRI APR 18 2014

NOTE: "FAIR" INDICATES FEW OR NO CLOUDS BELOW 12,000 FEET WITH NO
SIGNIFICANT WEATHER AND/OR OBSTRUCTIONS TO VISIBILITY.

* - STATION DOES NOT REPORT WEATHER SUCH AS PRECIPITATION OR FOG.

+ - STATION NOT QUALITY CONTROLLED BY THE NATIONAL WEATHER SERVICE.
    USE DATA WITH CAUTION...ESPECIALLY DEWPOINT AND RELATIVE
    HUMIDITY OBSERVATIONS.

INZ001>003-010>013-019-020-190400-
NORTHWEST INDIANA

CITY           SKY/WX    TMP DP  RH WIND       PRES   REMARKS
GARY /AIRPORT/ CLEAR     39  30  71 N10       30.38S
LA PORTE +     CLEAR     36  25  64 N7        30.35F
MICHIGAN CITY+ CLEAR     36  27  69 N6        30.36S
MONTICELLO +   CLEAR     44  35  69 NE7       30.32R
RENSSELAER +   CLEAR     41  32  70 CALM      30.34S
VALPARAISO     CLEAR     35  27  72 N7        30.35S WCI  29

$$

LMZ046-743>745-190400-
SOUTHERN LAKE MICHIGAN

STATION/POSITION TIME  TEMP WIND        PRES
                       AIR  DIR/SP/G
                 (UTC) (F)  (DEG/KT/KT) (MB)
MICHIGAN CITY    0300   38   20/ 13/ 16   N/A

$$

INZ004-005-014>016-021>024-190400-
NORTH CENTRAL INDIANA

CITY           SKY/WX    TMP DP  RH WIND       PRES   REMARKS
GOSHEN         CLEAR     41  31  67 N6        30.32S
LOGANSPORT +   CLEAR     45  34  65 N10       30.33R
PERU/GRISSOM   CLEAR     47  40  75 N12       30.31R
ROCHESTER +    CLEAR     45  34  65 N5        30.33R
SOUTH BEND     CLEAR     37  23  56 N5        30.35R
WARSAW +       CLEAR     41  32  70 N5        30.32S

$$

INZ006>009-017-018-025>027-190400-
NORTHEAST INDIANA

CITY           SKY/WX    TMP DP  RH WIND       PRES   REMARKS
ANGOLA *+      CLEAR     45  36  70 NW6       30.31R
AUBURN +       CLEAR     48  32  53 N9G16     30.31R
FORT WAYNE     CLEAR     49  34  56 N14       30.31R

$$

INZ028-029-035-036-043>045-051>053-190400-
WEST CENTRAL INDIANA

CITY           SKY/WX    TMP DP  RH WIND       PRES   REMARKS
GREENCASTLE +  CLEAR     54  39  58 N9        30.28R
LAFAYETTE      CLEAR     46  36  68 NE7       30.32R
TERRE HAUTE    CLEAR     55  41  59 N10       30.26R

$$

INZ030>032-037>040-046>048-054>057-064-065-190400-
CENTRAL INDIANA

CITY           SKY/WX    TMP DP  RH WIND       PRES   REMARKS
CP ATTERBURY + PTCLDY    52  41  66 CALM      30.25R
INDIANAPOLIS   CLEAR     56  36  47 N13       30.26R
-EAGLE CREEK   CLEAR     55  35  47 N13       30.27R
KOKOMO *+      CLEAR     48  36  61 N9        30.31R
MARION +       CLEAR     50  35  56 N9        30.30R
MT COMFORT *+  CLEAR     52  41  66 N12       30.27S
SHELBYVILLE    PTCLDY    57  41  55 N9        30.25R
ZIONSVILLE +   CLEAR     51  36  55 N8        30.29R

$$

INZ033-034-041-042-049-050-058-059-190400-
EAST CENTRAL INDIANA

CITY           SKY/WX    TMP DP  RH WIND       PRES   REMARKS
MUNCIE         CLEAR     51  37  58 N10       30.28R

$$

INZ060-061-067>069-081>083-085>088-190400-
SOUTHWEST INDIANA

CITY           SKY/WX    TMP DP  RH WIND       PRES   REMARKS
EVANSVILLE     MOCLDY    63  42  46 N3        30.22R
HUNTINGBURG *+ MOCLDY    61  39  44 NE5       30.22S
WASHINGTON +   PTCLDY    56  45  65 N6        30.23R

$$

INZ062-063-066-070>080-084-089>092-190400-
SOUTH CENTRAL AND SOUTHEAST INDIANA

CITY           SKY/WX    TMP DP  RH WIND       PRES   REMARKS
BLOOMINGTON    PTCLDY    51  41  68 N3        30.24R
NORTH VERNON + MOCLDY    57  43  58 N6        30.24
SEYMOUR +      MOCLDY    54  27  35 N8        30.23

$$




USA.gov is the U.S. government's official web portal to all federal, state and local government web resources and services.